Theta_e
313 313 314 314 314 314 313 313 313 313 313 312 312 312 311 310 310 312 312 312 313 314 315 315 315 315 309 302 296 305 332 331 328 318 309 305 303 306 303 306 307 305 308 310 312 311 312
312 312 312 312 313 313 312 312 312 313 313 313 313 313 312 312 311 310 311 313 313 313 313 314 315 316 305 291 303 308 307 306 306 314 312 306 304 305 300 302 302 308 308 310 311 311 312
311 311 311 311 311 311 311 311 311 311 312 313 313 313 313 313 312 312 311 311 312 313 312 313 314 310 303 299 305 306 304 302 304 308 309 311 309 305 302 298 302 302 299 303 306 308 308
310 310 310 310 310 310 310 310 311 311 311 312 312 312 312 312 313 312 312 311 310 310 312 313 314 308 298 309 311 308 307 302 303 304 308 310 312 305 300 300 300 296 295 293 301 305 308
308 308 308 308 309 308 308 310 310 311 311 311 312 312 311 311 311 313 313 312 311 310 311 312 305 303 295 309 304 307 304 299 301 301 303 309 306 300 299 296 292 292 291 292 297 303 303
308 307 308 308 308 307 308 309 309 310 310 311 311 311 311 311 311 312 312 311 309 309 307 308 306 298 300 297 301 304 303 303 301 300 300 300 300 295 292 291 286 289 289 294 295 299 301
307 307 307 307 307 306 308 309 309 309 310 310 311 311 311 311 311 311 309 298 293 298 301 296 296 295 300 305 307 304 303 299 302 299 292 299 294 292 295 296 296 295 293 293 297 301 300
307 307 307 307 306 307 307 308 308 309 310 310 311 310 310 311 311 311 303 294 298 300 292 299 299 301 304 306 298 301 304 296 296 291 295 295 291 299 301 299 296 295 293 294 298 302 299
308 308 308 307 307 307 307 307 308 309 310 310 311 310 310 310 311 302 296 298 305 304 292 295 299 298 298 302 298 298 302 300 293 291 292 290 294 302 301 297 296 295 293 294 295 299 300
307 307 307 307 308 307 307 308 308 308 309 310 310 310 310 310 301 296 296 301 302 301 284 287 294 297 300 300 295 304 305 301 296 290 293 292 298 298 298 295 296 292 299 298 296 294 290
307 307 307 307 308 307 307 307 308 309 309 310 310 309 310 309 301 298 299 302 305 300 270 289 293 304 302 296 298 297 304 301 295 292 292 291 294 294 294 295 298 295 300 298 297 294 291
306 306 306 307 307 307 308 308 308 309 309 310 310 309 309 303 301 301 303 302 299 286 274 286 294 291 292 297 297 301 299 301 301 295 294 293 299 297 296 300 300 300 296 295 294 291 286
306 306 306 307 307 307 308 308 308 309 309 309 309 309 306 305 295 299 301 296 281 278 288 286 287 290 290 290 294 295 295 292 291 287 288 292 293 297 298 295 297 296 290 283 280 283 284
306 306 307 308 308 308 308 309 309 309 309 309 309 308 305 304 301 302 296 288 276 284 284 291 289 290 287 290 289 293 293 290 294 293 289 287 285 293 298 295 292 293 293 285 280 281 285
306 306 307 307 308 308 308 308 308 308 308 308 306 298 297 299 303 300 292 280 279 284 288 287 288 285 285 288 289 289 291 291 293 295 288 287 288 297 298 298 297 292 290 295 287 289 286
306 306 307 307 308 308 308 308 309 309 308 307 300 297 293 300 302 300 288 279 284 290 289 288 282 287 282 285 286 286 289 294 295 296 294 291 285 295 297 298 297 292 295 286 284 280 279
306 306 306 308 308 308 308 308 309 309 307 306 292 290 295 305 301 293 281 282 286 290 290 287 285 283 285 285 286 286 288 293 295 294 296 290 289 290 295 292 291 289 290 288 290 288 282
306 307 307 307 308 308 308 308 308 308 305 299 289 282 298 303 289 286 283 286 291 289 292 289 289 287 286 287 286 284 286 291 297 295 290 293 288 286 290 294 298 295 292 292 287 285 287
307 307 307 307 308 308 308 308 308 307 305 297 288 285 296 300 283 282 286 287 289 288 288 288 288 289 290 287 284 287 289 295 296 293 290 292 287 282 285 290 293 291 293 293 291 289 287
307 308 308 308 308 308 307 308 308 307 306 293 290 281 288 291 290 286 284 284 285 291 288 289 287 289 288 287 289 287 287 291 294 293 300 293 288 287 284 287 292 290 292 293 292 288 289
306 307 307 308 308 308 308 308 308 307 306 293 286 282 289 282 282 284 283 285 283 284 288 288 285 287 286 283 286 287 290 291 293 296 293 288 283 290 293 293 294 294 293 293 292 293 290
305 306 307 307 307 307 308 308 308 307 303 291 285 288 291 287 288 284 283 283 285 287 288 285 285 288 288 285 287 285 289 290 288 291 289 288 282 289 291 293 293 291 294 295 295 295 295
305 305 305 305 305 306 307 308 308 307 302 291 296 295 290 287 286 279 280 285 285 288 291 291 289 287 286 289 292 293 294 294 293 289 288 285 285 284 285 293 291 287 292 294 295 298 297
305 305 304 304 305 305 306 307 308 308 305 300 296 295 289 283 285 283 286 287 286 288 286 290 291 285 289 295 295 295 293 294 293 292 292 286 284 285 282 288 281 292 298 298 296 299 299
305 304 304 304 304 304 305 306 308 308 307 300 294 296 290 284 286 286 287 287 287 288 286 288 290 291 291 291 287 285 286 287 290 292 293 292 286 282 281 283 289 295 298 295 294 295 300
304 304 304 304 304 304 305 305 307 308 308 298 295 299 295 287 285 290 287 288 287 286 285 288 291 293 290 287 285 280 280 285 285 288 294 294 290 285 285 280 281 292 298 303 302 292 302
304 304 304 304 305 305 305 306 307 307 308 300 300 297 297 288 291 292 289 287 292 290 286 285 287 288 291 283 276 280 281 288 281 282 285 287 285 282 283 282 291 296 299 301 291 290 297
304 304 304 304 305 305 306 306 307 307 308 303 298 297 298 292 293 294 295 291 292 291 286 285 286 287 286 281 283 286 285 287 285 287 286 285 286 288 287 284 285 297 297 291 293 297 298
303 303 304 304 305 305 306 306 307 308 308 306 297 297 301 295 293 297 297 298 297 295 292 290 290 291 288 287 288 289 287 288 287 283 289 285 287 287 290 291 297 297 295 298 298 297 298
Wind_Speed
17 18 18 18 16 14 14 14 15 15 15 15 16 17 18 19 19 19 19 19 19 17 16 15 14 13 7 5 11 14 8 5 8 12 13 13 7 7 9 5 5 7 20 18 14 11 14
18 17 18 18 18 16 17 17 18 18 17 18 17 17 17 18 19 19 19 18 17 17 16 15 13 11 3 15 7 16 19 7 9 3 8 10 10 8 4 10 9 6 9 18 15 19 18
20 20 20 19 18 18 19 19 18 19 18 18 18 18 18 18 18 19 19 19 18 18 18 16 16 11 15 26 7 8 9 4 3 12 8 13 10 9 7 6 6 6 12 16 19 21 20
18 18 18 18 19 18 19 19 19 19 19 18 18 18 19 20 20 20 21 20 20 22 19 17 15 11 16 6 15 21 23 23 11 7 9 7 14 13 3 2 7 4 2 8 6 15 16
17 17 17 17 17 16 18 18 18 19 20 20 18 17 18 20 21 22 22 22 27 26 22 16 10 8 15 9 10 19 15 13 15 11 6 9 6 7 4 10 7 3 13 13 18 10 6
18 19 19 19 19 19 19 19 19 19 20 20 18 18 18 20 20 20 20 25 26 14 5 8 10 2 9 9 7 7 11 19 7 8 5 8 5 6 5 7 16 12 9 16 19 3 11
18 18 18 18 18 19 19 19 19 20 21 21 21 18 17 18 20 19 13 8 6 1 1 9 7 9 6 12 5 5 6 14 8 4 12 10 9 21 20 20 12 13 12 18 17 5 7
19 18 19 20 20 19 20 20 21 21 21 21 21 22 21 18 17 16 4 1 4 4 13 13 22 24 30 12 11 7 14 9 9 18 10 7 27 16 12 14 16 11 9 18 14 11 5
19 19 19 19 19 19 19 21 21 21 21 21 20 19 20 20 17 5 3 6 7 8 8 12 16 12 15 14 13 10 8 7 6 14 23 26 17 15 19 14 17 17 19 18 20 6 7
19 18 18 18 18 18 20 21 22 22 22 21 20 19 18 18 6 3 5 0 8 9 5 10 7 8 9 12 14 16 8 8 6 20 17 18 23 17 21 21 19 19 18 19 17 8 9
20 19 19 18 18 18 20 21 22 23 22 20 19 18 16 12 7 6 5 9 13 2 6 3 5 2 1 16 2 13 19 8 12 8 13 16 19 26 18 29 20 19 12 12 8 8 5
21 20 20 20 20 21 19 20 21 22 21 20 18 17 15 6 3 8 7 11 1 3 10 7 4 12 1 12 18 8 13 9 8 7 11 20 9 19 27 10 17 8 3 3 6 1 8
21 21 20 21 21 21 20 20 21 22 21 20 20 18 13 6 5 2 5 4 0 7 6 3 12 19 12 14 12 15 13 20 17 11 15 8 21 4 10 20 10 11 7 3 4 4 7
21 21 21 21 21 21 21 21 21 21 20 20 20 19 8 7 3 2 1 1 8 6 10 13 19 17 9 21 12 10 11 16 26 16 12 13 11 27 11 19 13 22 16 8 7 5 5
22 21 22 23 22 21 21 22 21 22 20 19 17 4 4 4 6 2 2 4 5 3 8 15 16 9 9 15 10 12 12 6 15 17 9 13 15 2 22 9 19 12 17 12 4 1 2
21 21 22 22 21 22 23 22 22 21 20 18 6 5 4 4 6 3 1 5 4 6 12 13 8 6 15 12 13 15 6 13 7 19 1 2 2 9 14 18 17 10 10 9 4 5 3
20 20 21 21 21 22 23 23 23 20 20 13 3 4 3 3 3 1 2 5 6 8 10 5 6 10 14 8 5 15 8 7 18 14 10 3 3 5 10 15 23 7 15 3 8 6 7
21 21 21 21 21 21 22 22 22 19 18 6 2 4 3 2 1 1 1 3 5 10 9 8 7 12 12 6 4 7 10 13 11 16 8 7 5 10 12 4 18 24 19 20 9 9 2
20 21 21 20 20 20 21 21 21 18 10 3 4 3 3 2 2 1 4 6 7 12 9 3 5 6 10 9 6 4 8 15 13 16 14 9 6 1 4 5 4 15 23 15 6 4 6
21 21 20 20 20 20 20 20 20 18 11 3 3 4 4 3 2 1 4 5 4 7 10 5 7 7 9 9 8 7 13 10 16 16 16 5 5 12 18 4 5 5 17 17 14 10 10
22 22 21 21 20 20 20 20 20 19 10 3 3 3 2 4 3 7 3 5 7 7 3 5 4 4 8 7 8 8 10 13 6 12 9 3 5 8 17 21 11 4 11 20 21 20 16
21 23 22 21 21 21 20 18 19 14 7 4 2 2 2 6 6 5 5 3 7 10 6 6 2 7 9 7 7 12 10 5 3 9 9 6 6 10 10 15 23 23 8 16 20 14 11
21 22 22 23 22 20 20 18 16 14 4 1 2 2 1 5 6 3 4 4 10 13 8 10 8 9 12 12 6 10 8 8 8 6 8 3 4 11 8 13 9 17 28 15 9 13 15
20 21 23 23 22 20 19 20 16 13 2 1 2 2 2 4 3 4 10 15 14 10 10 16 11 5 5 10 12 8 8 12 12 14 10 7 4 4 7 2 10 13 9 18 14 8 12
22 21 22 23 22 20 18 19 18 13 7 2 2 1 1 4 6 11 7 9 11 10 6 11 12 6 5 4 4 5 3 4 6 11 9 13 6 3 3 5 5 6 6 4 11 10 8
23 22 22 21 22 22 19 19 18 14 10 2 3 3 2 3 4 9 8 9 8 5 6 5 7 6 1 3 3 4 3 2 3 7 9 12 15 6 2 4 8 4 18 16 11 8 12
23 23 22 22 23 23 21 20 18 16 12 1 3 4 2 4 5 4 5 3 5 4 4 6 6 6 3 1 1 3 3 0 2 5 8 7 3 8 3 5 3 18 21 19 10 5 18
23 23 23 23 24 24 21 20 17 16 12 2 3 5 3 4 12 8 4 6 7 4 3 5 5 4 4 6 2 1 1 2 2 3 0 3 6 3 4 5 3 22 8 10 7 10 14
24 24 23 23 23 23 21 20 18 14 12 2 3 1 2 4 9 10 16 20 15 18 2 2 2 2 2 2 3 3 2 1 1 4 3 4 3 4 4 3 1 7 4 5 5 8 13
Wind_Direction
12 11 9 8 3 350 346 343 341 336 331 327 327 329 329 324 319 320 318 316 313 314 304 303 306 314 343 247 235 262 271 75 86 163 180 187 173 178 204 203 175 220 246 248 261 272 271
10 9 6 3 3 3 357 351 347 343 340 335 324 320 320 320 321 316 314 310 303 302 304 299 300 299 225 249 248 258 276 284 264 178 172 166 198 212 218 238 239 225 254 260 258 261 259
4 3 1 360 359 358 353 348 342 339 336 333 332 329 321 315 313 313 308 301 302 300 298 296 297 286 251 241 278 315 320 234 209 221 206 202 220 198 182 313 260 251 271 278 261 260 259
2 357 354 352 350 352 348 342 338 335 332 328 327 328 325 324 317 309 307 306 297 291 286 282 284 273 257 264 242 259 259 271 246 260 234 225 212 230 182 304 344 359 286 264 234 240 256
357 355 353 350 346 346 342 337 336 335 333 329 325 323 322 322 318 314 307 305 298 284 276 264 264 231 269 278 218 240 214 227 233 230 228 242 151 187 109 222 271 262 258 267 279 219 251
353 351 351 347 345 342 339 336 337 332 329 327 324 322 319 318 317 313 310 312 297 296 244 218 232 228 249 236 236 215 186 206 202 186 194 191 179 181 166 160 212 218 237 247 251 198 220
353 348 348 347 343 342 335 331 335 330 328 326 325 323 319 316 318 315 326 339 5 42 297 220 217 251 307 14 291 213 165 169 174 203 183 177 195 209 201 209 216 228 233 247 258 213 232
353 349 344 343 344 341 336 337 333 330 327 323 322 322 322 320 317 314 0 260 257 337 294 255 252 245 268 289 298 281 137 144 178 199 166 182 228 208 207 209 218 233 245 255 282 264 246
350 347 347 348 345 336 335 334 332 328 326 323 319 317 319 320 319 335 181 237 282 317 270 275 227 234 219 199 231 245 188 160 174 194 196 203 221 195 206 212 216 224 229 247 251 301 226
353 351 349 346 338 336 338 334 331 329 326 323 318 316 320 322 332 304 255 240 321 285 288 273 218 248 200 188 246 221 210 174 202 203 198 229 219 181 204 223 211 231 221 241 256 277 270
355 352 353 348 343 342 335 332 330 326 325 323 317 315 315 326 288 279 276 334 321 177 307 239 201 198 245 195 40 224 196 220 205 166 171 203 196 221 222 218 204 238 224 244 255 257 301
356 354 351 347 346 340 332 328 325 324 320 315 312 317 318 312 217 256 316 296 248 209 247 306 85 351 303 223 250 313 167 214 158 220 235 221 199 205 223 202 212 233 229 288 265 227 252
355 351 350 347 344 339 333 328 325 323 319 318 314 307 304 278 244 152 334 349 176 224 302 14 349 335 327 336 201 242 216 189 186 183 210 187 229 222 174 217 208 192 110 277 315 198 220
353 350 350 348 343 340 336 334 331 325 323 319 315 309 271 235 218 248 44 80 222 251 269 352 345 325 16 11 343 264 235 200 206 194 170 190 212 210 187 201 189 209 185 174 199 183 214
350 348 349 349 343 343 341 339 339 335 329 326 327 340 293 269 186 136 133 214 228 303 10 347 337 355 345 1 343 345 233 270 226 194 176 200 232 216 197 188 182 198 205 178 0 280 73
347 346 347 345 344 344 342 340 340 337 332 334 334 326 283 323 127 115 118 258 275 322 339 347 325 5 334 342 338 340 315 359 277 223 55 278 160 215 206 199 211 157 155 183 188 226 219
344 344 346 344 343 347 344 342 342 338 335 339 33 348 302 122 82 113 217 245 302 302 315 311 327 308 308 321 345 327 311 27 22 353 343 267 146 300 154 202 194 161 231 153 156 184 174
343 341 344 343 342 345 344 343 345 344 340 40 20 350 290 28 16 354 273 241 301 291 301 280 236 264 279 286 284 291 291 337 32 2 7 279 206 243 216 281 186 200 204 211 196 212 208
342 339 341 340 341 344 344 344 345 347 5 326 345 277 305 109 282 274 274 263 252 285 286 264 297 297 279 299 300 248 284 315 333 359 346 327 279 214 280 274 187 203 203 199 204 93 210
340 335 337 338 340 343 344 344 342 340 346 79 10 342 322 33 142 301 311 274 270 273 294 257 285 276 291 301 252 259 278 294 316 336 328 323 268 235 220 194 171 166 197 196 191 208 216
341 334 334 336 337 338 342 344 342 338 348 90 24 287 329 311 335 303 260 275 309 325 276 277 290 236 276 300 318 261 280 291 303 326 360 25 268 273 259 238 273 212 175 199 204 208 195
338 335 332 334 338 338 337 341 346 357 18 70 43 327 340 282 307 304 301 298 295 316 291 288 223 309 328 280 248 287 313 334 7 301 330 356 286 328 258 234 230 252 257 204 205 208 218
335 335 333 335 336 337 334 338 342 350 40 61 272 266 195 296 304 301 250 333 305 303 276 248 275 310 290 276 310 285 228 211 206 223 278 258 333 352 276 223 221 249 238 238 221 200 187
334 338 337 335 334 336 332 331 336 341 168 214 268 238 261 270 277 272 295 297 294 308 283 288 293 252 255 342 301 268 226 227 228 241 234 239 256 218 277 211 198 247 200 218 220 217 216
333 336 337 336 332 332 330 324 328 329 344 192 245 262 254 271 257 297 301 290 296 298 270 281 283 244 310 285 273 284 220 229 231 234 279 221 198 246 244 212 301 200 23 164 167 253 210
331 332 334 333 331 329 328 323 324 327 324 139 224 205 236 284 239 276 294 287 292 293 307 267 295 298 216 222 197 223 264 277 89 348 320 323 175 186 321 230 193 30 324 323 304 196 356
329 331 331 331 323 321 326 322 322 319 324 229 260 193 235 240 257 269 283 299 287 287 276 291 325 327 345 348 115 231 191 142 84 22 347 344 142 229 300 284 331 346 322 301 134 273 323
330 329 329 326 323 325 323 318 317 314 319 343 255 194 222 249 283 256 208 223 273 252 271 290 340 359 335 14 306 322 197 94 110 152 49 306 311 164 177 262 278 344 14 55 305 311 316
329 328 327 324 323 324 322 319 317 312 299 317 255 170 186 251 263 271 260 259 244 240 275 264 248 266 231 330 305 301 348 142 170 85 95 250 313 327 322 45 31 329 99 268 280 310 325